Sedalia, MO

8:49 AM CST on December 06, 2016 (GMT -0600)
Sedalia Memorial

Weather History for KDMO - March, 2013

Change the Weather History Date:

Thursday, March 21, 2013

  Actual Average Record
Temperature  
Mean Temperature 28 °F 48 °F  
Max Temperature 34 °F 59 °F 83 °F (1938)
Min Temperature 22 °F 38 °F 12 °F (1951)
Degree Days  
Heating Degree Days 37 17  
Month to date heating degree days 563 433  
Since 1 July heating degree days 4001 4050  
Cooling Degree Days 0 0  
Month to date cooling degree days 0 0  
Year to date cooling degree days 1 0  
Moisture  
Dew Point 19 °F    
Average Humidity 67    
Maximum Humidity 92    
Minimum Humidity 41    
Precipitation  
Precipitation T in 0.08 in 1.76 in (1962)
Month to date precipitation 1.50 1.72  
Year to date precipitation 6.77 5.32  
Sea Level Pressure  
Sea Level Pressure 30.04 in    
Wind  
Wind Speed 7 mph (ESE)    
Max Wind Speed 14 mph    
Max Gust Speed 16 mph    
Visibility 7 miles    
Events Snow    
T = Trace of Precipitation, MM = Missing Value Source: NWS Daily Summary

Daily Weather History Graph

Daily Weather History Graph

Search for Another Location

Airport or City:

Trip Planner

Search our weather history database for the weather conditions in past years. The results will help you decide how hot, cold, wet, or windy it might be!

Date:

Astronomy

Mar. 21, 2013 Rise Set
Actual Time 7:14 AM CDT 7:25 PM CDT
Civil Twilight 6:47 AM CDT 7:52 PM CDT
Nautical Twilight 6:16 AM CDT 8:23 PM CDT
Astronomical Twilight 5:45 AM CDT 8:55 PM CDT
Moon 1:59 PM CDT (3/21) 3:33 AM CDT (3/21)
Length of Visible Light 13h 04m
Length of Day
12h 11m
Waxing Gibbous, 69% of the Moon is Illuminated
Mar 21
Waxing Gibbous
Mar 27
Full
Apr 2
Last Quarter
Apr 10
New
Apr 18
First Quarter

Hourly Weather History & Observations

Time (CDT) Temp. Windchill Dew Point Humidity Pressure Visibility Wind Dir Wind Speed Gust Speed Precip Events Conditions
12:53 AM 27.0 °F - 10.9 °F 51% 30.16 in 10.0 mi Calm Calm - N/A   Clear
1:53 AM 25.0 °F - 15.1 °F 66% 30.15 in 10.0 mi Calm Calm - N/A   Clear
2:53 AM 24.1 °F 17.0 °F 15.1 °F 69% 30.14 in 10.0 mi NE 5.8 mph - N/A   Clear
3:53 AM 25.0 °F - 9.0 °F 51% 30.14 in 10.0 mi Calm Calm - N/A   Clear
4:53 AM 23.0 °F 15.8 °F 10.9 °F 60% 30.12 in 10.0 mi ENE 5.8 mph - N/A   Clear
5:53 AM 23.0 °F 13.9 °F 12.9 °F 65% 30.12 in 10.0 mi East 8.1 mph - N/A   Clear
6:53 AM 21.9 °F 13.4 °F 14.0 °F 72% 30.12 in 10.0 mi ESE 6.9 mph - N/A   Partly Cloudy
7:53 AM 24.1 °F 17.0 °F 14.0 °F 65% 30.14 in 10.0 mi SE 5.8 mph - N/A   Mostly Cloudy
8:53 AM 25.0 °F 16.3 °F 12.9 °F 60% 30.14 in 10.0 mi ESE 8.1 mph - N/A   Scattered Clouds
9:53 AM 27.0 °F 18.7 °F 12.9 °F 56% 30.13 in 10.0 mi ESE 8.1 mph - N/A   Overcast
10:53 AM 28.0 °F 18.6 °F 12.9 °F 53% 30.11 in 10.0 mi ESE 10.4 mph - N/A   Overcast
11:53 AM 28.9 °F 20.4 °F 12.0 °F 49% 30.09 in 10.0 mi East 9.2 mph - N/A   Overcast
12:53 PM 32.0 °F 23.0 °F 12.9 °F 45% 30.05 in 10.0 mi East 11.5 mph - N/A   Overcast
1:53 PM 32.0 °F 24.8 °F 12.9 °F 45% 30.04 in 10.0 mi ESE 8.1 mph - N/A   Overcast
2:53 PM 33.1 °F 25.5 °F 12.0 °F 42% 30.00 in 10.0 mi ESE 9.2 mph - N/A   Overcast
3:53 PM 33.1 °F 25.5 °F 15.1 °F 48% 29.99 in 10.0 mi ESE 9.2 mph - N/A   Overcast
4:53 PM 30.9 °F 21.7 °F 21.9 °F 69% 29.98 in 3.0 mi ESE 11.5 mph - 0.00 in Snow Light Snow
5:01 PM 30.2 °F 21.3 °F 23.0 °F 75% 29.95 in 2.5 mi SSE 10.4 mph - 0.00 in Snow Light Snow
5:25 PM 30.2 °F 20.2 °F 24.8 °F 80% 29.95 in 4.0 mi SE 12.7 mph - 0.00 in Snow Light Snow
5:40 PM 30.2 °F 21.9 °F 24.8 °F 80% 29.95 in 2.0 mi SE 9.2 mph - 0.00 in Snow Light Snow
5:53 PM 30.0 °F 20.5 °F 24.1 °F 79% 29.98 in 1.8 mi ESE 11.5 mph - 0.00 in Snow Light Snow
5:59 PM 30.2 °F 20.8 °F 24.8 °F 80% 29.95 in 1.2 mi ESE 11.5 mph - 0.00 in Snow Light Snow
6:10 PM 28.4 °F 19.7 °F 24.8 °F 86% 29.95 in 1.2 mi ESE 9.2 mph - 0.00 in Snow Light Snow
6:31 PM 30.2 °F 22.6 °F 24.8 °F 80% 29.95 in 1.5 mi SE 8.1 mph - 0.00 in Snow Light Snow
6:41 PM 28.4 °F 21.2 °F 26.6 °F 93% 29.95 in 2.5 mi SE 6.9 mph - 0.00 in Snow Light Snow
6:53 PM 28.9 °F 21.9 °F 25.0 °F 85% 29.99 in 3.0 mi SE 6.9 mph - 0.00 in Snow Light Snow
7:53 PM 28.9 °F 21.1 °F 26.1 °F 89% 29.99 in 5.0 mi ESE 8.1 mph - 0.00 in Snow Light Snow
8:53 PM 30.0 °F 21.7 °F 27.0 °F 88% 29.99 in 10.0 mi ESE 9.2 mph - 0.00 in   Overcast
9:53 PM 30.9 °F 23.5 °F 27.0 °F 85% 29.99 in 10.0 mi SE 8.1 mph - N/A   Overcast
10:53 PM 32.0 °F 26.4 °F 28.0 °F 85% 30.00 in 10.0 mi ESE 5.8 mph - N/A   Overcast
11:53 PM 32.0 °F 27.5 °F 27.0 °F 82% 29.99 in 10.0 mi ENE 4.6 mph - N/A   Overcast